DECAYED

STARLINK-3759, 52299 (Decayed)

Orbit data source: Space-Track

STARLINK-3759, 52299 was a payload satellite owned by SpaceX/Seattle (US) in LEO that was launched on Thu, 21 Apr 2022 UTC via an FALCON 9 launch vehicle from the Air Force Eastern Test Range (AFETR). Payload-class satellites include a variety of spacecraft equipped with specific instruments for various scientific and technological missions. These include communications satellites like Starlink; space stations such as the ISS; scientific satellites like the Hubble; Earth observation satellites from companies like Planet Labs, Umbra, and HawkEye 360; GPS; miniature CubeSats for education and research; and military/defense satellites.

Not visible in the next 10 days
Identifier
52299, 2022-041AQ
Orbit
Decayed
Country
Flag of USUS
Related business
Manufacturer
SpaceX/Seattle
Mission
Decayed Commercial Communications
Bus & Motor
STARLINK, Unknown motor
Mass
297 kg wet, ~275 kg dry
Launch date (UTC)
2022-04-21 (4 years ago)
Launch vehicle
FALCON 9
Launch site
Air Force Eastern Test Range (AFETR)
Object type
Payload
Rocket body
Debris
Shape & HBR
Box + 1 Pan, 10.1 m
Radar Cross Section
11.087 m², Large (>1 m²)

Expand to show TLE details & history
Last TLE update: 2 years ago

TLE from 2 years ago
0 STARLINK-3759
1 52299U 22041AQ  25021.73148328  .10300271  12504-4  38733-3 0  9999
2 52299  53.2015 124.6140 0002651 333.1765 150.5659 16.44206819153860
Epoch: 2025-01-21T17:33Z
TLE epoch observation values (Epoch: 2025-01-21T17:33:20.155Z)
Latitude
41.87924°
Longitude
-121.87695°
Altitude
160.116 km
Speed
7.815 km/s
True Right ascension
17h 31m 09s
True Declination
41° 41' 34"
Sunlit
Object was in daylight at epoch
Visualization orbit readout
Latitude
Unknown
Longitude
Unknown
Altitude
Unknown
Speed
Unknown
Apparent Right ascension
Unknown
Apparent Declination
Unknown
Sunlit
N/A
Visualization observer readout
Local Sidereal Time
18:13:50
Azimuth
Unknown
Elevation
Unknown
Doppler factor
Unknown
Orbital elements
Apogee altitude
156.629 km
Perigee altitude
153.165 km
Semi-major axis
6,533.034 km
Eccentricity
0.00027
Inclination
53.2015°
RAAN
124.614°
Arg. of periapsis
333.1765°
True anomaly
150.58082°
Mean anomaly
150.5659°
Eccentric anomaly
150.57336°
Mean motion
4.11027 °/min
Orbital period
87.59 mins
BSTAR
0.00038733
Loading maneuver chart data...
Computing Atmospheric mass density...
Loading historical data...
Loading historical data...
Loading historical data...
Loading historical data...
Loading historical data...
Loading historical data...
Loading historical data...

Documentation

Showing up to 5 results
|